STARLINK-34845, 65289

Orbit data source: Space-Track

STARLINK-34845, 65289 is a payload satellite owned by SpaceX/Seattle (US) in SSO that was launched on Fri, 22 Aug 2025 UTC via an FALCON 9 launch vehicle from the Air Force Western Test Range (AFWTR). Payload-class satellites include a variety of spacecraft equipped with specific instruments for various scientific and technological missions. These include communications satellites like Starlink; space stations such as the ISS; scientific satellites like the Hubble; Earth observation satellites from companies like Planet Labs, Umbra, and HawkEye 360; GPS; miniature CubeSats for education and research; and military/defense satellites.

Loading next visibility...
Identifier
65289, 2025-184S
Orbit
SSO
Country
Flag of USUS
Related business
Manufacturer
SpaceX/Seattle
Mission
Operational Commercial Communications
Bus & Motor
STARLINK V2MO, Unknown motor
Mass
575 kg wet, ~530 kg dry
Launch date (UTC)
2025-08-22 (10 months ago)
Launch vehicle
FALCON 9
Launch site
Air Force Western Test Range (AFWTR)
Object type
Payload
Rocket body
Debris
Shape & HBR
Box + 2 Pan, 17.7 m
Radar Cross Section
36.964 m², Large (>1 m²)

Expand to show TLE details & history
Last TLE update: 1 day ago

TLE from 1 day ago
0 STARLINK-34845
1 65289U 25184S   26170.70319950  .00003470  00000-0  24420-3 0  9999
2 65289  97.3366 222.1853 0001479  77.7924 282.3469 15.05672678 46658
Epoch: 2026-06-19T16:52Z
TLE epoch observation values (Epoch: 2026-06-19T16:52:36.436Z)
Latitude
-0.00006°
Longitude
61.10512°
Altitude
552.295 km
Speed
7.586 km/s
True Right ascension
14h 48m 44s
True Declination
0° 00' 00"
Sunlit
Object was in full shadow at epoch
Visualization orbit readout
Latitude
Unknown
Longitude
Unknown
Altitude
Unknown
Speed
Unknown
Apparent Right ascension
Unknown
Apparent Declination
Unknown
Sunlit
N/A
Visualization observer readout
Local Sidereal Time
07:21:17
Azimuth
Unknown
Elevation
Unknown
Doppler factor
Unknown
Orbital elements
Apogee altitude
547.448 km
Perigee altitude
545.399 km
Semi-major axis
6,924.561 km
Eccentricity
0.00015
Inclination
97.3366°
RAAN
222.1853°
Arg. of periapsis
77.7924°
True anomaly
282.33034°
Mean anomaly
282.3469°
Eccentric anomaly
282.33862°
Mean motion
3.76665 °/min
Orbital period
95.58 mins
BSTAR
0.0002442
Loading maneuver chart data...
Computing Atmospheric mass density...
Loading historical data...
Loading historical data...
Loading historical data...
Loading historical data...
Loading historical data...
Loading historical data...
Loading historical data...

Documentation

Showing up to 5 results
|